Regional Weather Roundup
Issued by NWS

Home | Current Version | Previous Version | Graphics & Text | Print | Product List | Glossary On
Versions: 1 2 3 4 5 6 7 8 9 10 11 12 13 14 15 16 17 18 19 20 21 22 23 24 25 26 27 28 29 30 31 32 33 34 35 36 37 38 39 40 41 42 43 44 45 46 47 48 49 50
386
ASUS45 KBOU 260707
RWRCO

WEATHER ROUNDUP FOR COLORADO
NATIONAL WEATHER SERVICE DENVER/BOULDER CO
100 AM MDT WED APR 26 2017

NOTE: "FAIR" INDICATES FEW OR NO CLOUDS BELOW 12000 FEET WITH NO
SIGNIFICANT WEATHER AND/OR OBSTRUCTIONS TO VISIBILITY.

COZ001>005-013-030-031-260800-
...NORTHWEST COLORADO...

CITY           SKY/WX    TMP DP  RH WIND       PRES   REMARKS
CRAIG          FAIR      31  26  82 SW6       29.91R WCI  25
HAYDEN         NOT AVBL
MEEKER         MOCLDY    34  33  96 CALM      29.91R
MOUNT WERNER   NOT AVBL
STEAMBOAT SPGS CLOUDY    32  32 100 CALM      29.87R
WALDEN           N/A     27  23  86 N6        29.88R WCI  20
$$

COZ006>008-011-260800-
...WEST CENTRAL VALLEYS...

CITY           SKY/WX    TMP DP  RH WIND       PRES   REMARKS
GRAND JUNCTION FAIR      38  35  89 N7        29.89S
MONTROSE       CLOUDY    38  32  79 SE6       29.93R
EAGLE          CLOUDY    34  32  92 E3        29.90R
RIFLE          MOCLDY    40  35  83 W14G21    29.90R
DELTA          FAIR      40  36  86 N6        29.90S
NUCLA          NOT AVBL
$$

COZ017>023-064>068-260800-
...SOUTHWEST COLORADO...

CITY           SKY/WX    TMP DP  RH WIND       PRES   REMARKS
DURANGO        FAIR      39  18  42 W9        29.81R
CORTEZ         FAIR      33  27  78 E7        29.89S WCI  27
PAGOSA SPRINGS FAIR      32  24  71 CALM      29.84R
TELLURIDE      NOT AVBL
WOLF CREEK PAS FAIR      18  12  79 N14G23    29.91R WCI   4
$$

COZ009-010-012-014-032>034-037-058>063-260800-
...CENTRAL COLORADO...

CITY           SKY/WX    TMP DP  RH WIND       PRES   REMARKS
ASPEN          CLOUDY    31  31 100 CALM      29.88R
BUENA VISTA    FAIR      33  19  56 NW7       29.82S WCI  27
COPPER MTN     CLOUDY    21  14  73 MISG      29.86R
BERTHOUD PASS  CLOUDY    14   3  62 NW39G46   29.79S WCI  -9
COTTONWOOD PAS FAIR      32  19  59 W6        29.84S WCI  26
GUNNISON       FAIR      32  26  78 W7        29.88R WCI  26
KREMMLING      LGT SNOW  37  32  81 N7        29.87R
LEADVILLE      LGT SNOW  23  19  85 N13G20    29.85R FOG     WCI  11
MONARCH PASS   FOG       19  18  93 W10       29.98S VSB 1/4 WCI   8
SALIDA         FAIR      36  29  74 W6        29.90R
SUNLIGHT       FOG      N/A N/A N/A CALM      29.96R VSB 1/2
WILKERSON PASS FAIR      19  18  93 NW10G17   29.85S WCI   8
$$

COZ069>075-260800-
...SAN LUIS VALLEY/SANGRE DE CRISTO MOUNTAINS...

CITY           SKY/WX    TMP DP  RH WIND       PRES   REMARKS
ALAMOSA        CLOUDY    33  32  96 NE6       29.81R WCI  28
LA VETA PASS   LGT SNOW  27  23  86 NW7       29.93R VSB 3/4 WCI  19
SAGUACHE       FAIR      36  23  60 NW18G24   29.83R
$$

COZ035-036-038>040-260800-
...NORTHERN COLORADO FRONT RANGE...

CITY           SKY/WX    TMP DP  RH WIND       PRES   REMARKS
DENVER INTL AP FLURRIES  31  25  78 N14       29.85F WCI  21
DMNS CITY PARK   N/A     33  26  76 MISG      29.86S
AURORA         CLOUDY    30  29  94 NE10      29.86S WCI  21
FRONT RANGE AP CLOUDY    32  30  93 N12       29.86S WCI  23
ERIE MUNI ARPT CLOUDY    33  27  78 E3        29.87S
BOULDER MUN AP CLOUDY    34  28  80 SE3       29.86S
CENTENNIAL     CLOUDY    31  29  92 N8        29.84F WCI  23
BROOMFIELD     CLOUDY    32  28  86 NE7       29.86S WCI  26
FORT COLLINS   FAIR      31  25  78 CALM      29.86F
LONGMONT       CLOUDY    36  30  79 CALM      29.88F
$$

COZ041-046-047-076>085-087-088-260800-
...PIKES PEAK/PALMER DIVIDE AND SOUTHERN FOOTHILLS...

CITY           SKY/WX    TMP DP  RH WIND       PRES   REMARKS
COLO. SPRINGS  MOCLDY    35  27  72 N18       29.81R WCI  24
A. F. ACADEMY  CLOUDY    32  28  86 N13       29.80F WCI  23
SCHRIEVER AFB  MOCLDY    32  28  83 N15       29.80S WCI  22
ELLICOTT       NOT AVBL
FALCON         NOT AVBL
FORT CARSON    CLOUDY    37  32  81 N10       29.80S
LIMON          MOCLDY    33  32  96 N12       29.79S WCI  24
MONUMENT HILL  CLOUDY    27  23  86 N10       29.83S WCI  17
TRINIDAD       LGT SNOW  33  31  92 NW8       29.78R FOG     WCI  26
$$

COZ042>045-048>051-090-091-260800-
...NORTHEAST COLORADO...

CITY           SKY/WX    TMP DP  RH WIND       PRES   REMARKS
GREELEY ARPT   FAIR      31  26  82 W5        29.88S WCI  26
AKRON          CLOUDY    31  28  89 N18       29.82R WCI  19
BURLINGTON     NOT AVBL
WRAY           NOT AVBL
STERLING       FAIR      32  30  93 N8        29.83F WCI  25
HOLYOKE        CLOUDY    36  30  80 N16G26    29.82S
FORT MORGAN    NOT AVBL
$$

COZ086-089-092>099-260800-
...SOUTHEAST COLORADO...

CITY           SKY/WX    TMP DP  RH WIND       PRES   REMARKS
PUEBLO         CLOUDY    43  37  79 NE12      29.80S
LA JUNTA       LGT RAIN  44  41  89 N13       29.77R
LAMAR          CLOUDY    43  40  89 NE17      29.73R
SPRINGFIELD      N/A     42  41  96 N20G26    29.69S
$$




USA.gov is the U.S. government's official web portal to all federal, state and local government web resources and services.